This is the latest recevied weather packets stored in our database for station/object OK1KKY-14. If no packets are shown the sender has not sent any weather packets the latest 1 day(s).
| Time | Temp. | Humidity | Pressure | Rain* | Wind** | Luminosity | Snow |
|---|---|---|---|---|---|---|---|
| 1778098996 | 24.44° C | 42% | 1006.2 hPa | - | - | - | - |
| 1778098396 | 24.44° C | 42% | 1006.2 hPa | - | - | - | - |
| 1778097196 | 24.44° C | 42% | 1005.3 hPa | - | - | - | - |
| 1778096599 | 24.44° C | 42% | 1005 hPa | - | - | - | - |
| 1778095995 | 24.44° C | 42% | 1005 hPa | - | - | - | - |
| 1778094795 | 24.44° C | 42% | 1004.9 hPa | - | - | - | - |
| 1778094195 | 24.44° C | 42% | 1004.9 hPa | - | - | - | - |
| 1778092995 | 25° C | 42% | 1004.5 hPa | - | - | - | - |
| 1778091195 | 24.44° C | 42% | 1004.7 hPa | - | - | - | - |
| 1778090595 | 23.89° C | 43% | 1004.9 hPa | - | - | - | - |
| 1778089395 | 24.44° C | 42% | 1005.2 hPa | - | - | - | - |
| 1778088795 | 24.44° C | 42% | 1005.2 hPa | - | - | - | - |
| 1778088195 | 24.44° C | 42% | 1005.3 hPa | - | - | - | - |
| 1778084595 | 23.89° C | 42% | 1004.7 hPa | - | - | - | - |
| 1778083395 | 23.33° C | 42% | 1005.4 hPa | - | - | - | - |
| 1778082795 | 23.33° C | 42% | 1005.3 hPa | - | - | - | - |
| 1778076195 | 23.89° C | 41% | 1005.3 hPa | - | - | - | - |
| 1778075595 | 23.89° C | 41% | 1005.5 hPa | - | - | - | - |
| 1778068394 | 24.44° C | 41% | 1007 hPa | - | - | - | - |
| 1778065996 | 24.44° C | 40% | 1007.3 hPa | - | - | - | - |
| 1778064193 | 23.89° C | 41% | 1007.5 hPa | - | - | - | - |
| 1778060593 | 23.89° C | 41% | 1007.7 hPa | - | - | - | - |
| 1778059993 | 23.89° C | 41% | 1007.7 hPa | - | - | - | - |
| 1778059393 | 23.89° C | 41% | 1007.6 hPa | - | - | - | - |
| 1778058193 | 23.89° C | 41% | 1007.6 hPa | - | - | - | - |
* Rain since midnight (hover to see other rain measurements)
** Current wind speed in m/s (hover to see current wind gust speed)